Location: Staunton
(38.1490°N, 79.0720°W)
Time: 14:47:19
(UTC-04:00)

ISS - Pass Details

Date: 23 July 2017
Orbit: 400 x 408 km, 51.6° (Epoch: 21 July)

Event Time Altitude Azimuth Distance (km) Brightness Sun altitude
Rises 21:54:28 0° 230° (SW) 2,296 0.1 -14.2°
Reaches altitude 10° 21:56:32 10° 230° (SW) 1,441 -0.9 -14.5°
Maximum altitude 21:59:46 88° 315° (NW) 403 -3.9 -15.0°
Drops below altitude 10° 22:03:01 10° 50° (NE) 1,449 -1.1 -15.4°
Sets 22:05:05 0° 51° (NE) 2,310 -0.1 -15.7°
